Home > Weather > Metz > Past weeks

Flag for France Past Weather in Metz, Lorraine, France — Yesterday and Last 2 Weeks

Now
57 °F

Rain. Fog.


Feels Like: 56 °F
Forecast: 55 / 63 °F
Wind: 6 mph from Southwest

Location: Metz-Nancy-Lorraine

Current Time: May 30, 2016 at 7:13:23 AM

Latest Report: May 30, 2016 at 6:30 AM


Visibility: 2 mi

Pressure: 29.68 "Hg

Humidity: 100%

Dew Point: 57 °F

Location of MetzLocation

Past Weather in Metz — Graph

°F

Metz Temperature Yesterday

Maximum temperature yesterday: 70 °F (at 2:30 PM)
Minimum temperature yesterday: 57 °F (at 12:00 AM)
Average temperature yesterday: 62 °F

High & Low Weather Summary for the Past Weeks

 TemperatureHumidityPressure
High75 °F (May 26, 4:00 PM)100% (May 17, 1:30 AM)30.18 "Hg (May 17, 1:30 AM)
Low36 °F (May 15, 5:00 AM)46% (May 18, 3:00 PM)29.65 "Hg (May 30, 5:30 AM)
Average57 °F81%29.97 "Hg
* Reported May 15 5:00 AM — May 30 5:30 AM, Metz, Weather by CustomWeather, © 2016

Note: Actual official high and low records may vary slightly from our data, if they occured in-between our weather recording intervals... More about our weather records

Advertising

Metz Weather History for the Previous 24 Hours

Scroll right to see more
 ConditionsComfort  
Time TempWeatherWind HumidityBarometerVisibility
5:30 AM
Mon, May 30
57 °FLight rain. Fog.7 mph100%29.65 "Hg2 mi
5:00 AM59 °FLight rain. Fog.6 mph100%29.68 "Hg3 mi
4:30 AM59 °FLight rain. Fog.6 mph100%29.68 "Hg3 mi
4:00 AM59 °FLight rain. Fog.5 mph100%29.68 "Hg3 mi
3:30 AM59 °FLight rain. Fog.6 mph100%29.68 "Hg3 mi
3:00 AM59 °FLight rain. Partly cloudy.7 mph100%29.68 "Hg4 mi
2:30 AM59 °FPassing clouds.7 mph100%29.68 "HgN/A
2:00 AM59 °FClear.6 mph100%29.71 "Hg10 mi
1:30 AM59 °FClear.6 mph100%29.71 "Hg10 mi
1:00 AM59 °FClear.6 mph100%29.71 "Hg10 mi
12:30 AM59 °FOvercast.6 mph100%29.71 "HgN/A
12:00 AM59 °FPassing clouds.6 mph100%29.71 "HgN/A
11:30 PM
Sun, May 29
61 °FLight rain. Overcast.7 mph94%29.71 "HgN/A
11:00 PM61 °FLight rain. Mostly cloudy.7 mph94%29.71 "HgN/A
10:30 PM61 °FPartly cloudy.8 mph100%29.71 "HgN/A
10:00 PM61 °FCool.3 mph100%29.71 "HgN/A
9:30 PM61 °FCool.5 mph100%29.71 "HgN/A
9:00 PM63 °FDrizzle. More clouds than sun.5 mph94%29.71 "HgN/A
8:30 PM63 °FBroken clouds.6 mph94%29.71 "HgN/A
8:00 PM66 °FPartly sunny.3 mph78%29.71 "HgN/A
7:30 PM66 °FPartly sunny.3 mph78%29.68 "HgN/A
7:00 PM66 °FSunny.5 mph78%29.68 "Hg10 mi
6:30 PM66 °FPassing clouds.3 mph73%29.68 "HgN/A
6:00 PM66 °FMild.6 mph78%29.71 "HgN/A
5:30 PM68 °FBroken clouds.8 mph73%29.71 "HgN/A
5:00 PM68 °FBroken clouds.9 mph73%29.71 "HgN/A
4:30 PM68 °FBroken clouds.9 mph73%29.71 "HgN/A
4:00 PM70 °FPartly sunny.12 mph69%29.71 "HgN/A
3:30 PM68 °FPartly sunny.9 mph73%29.71 "HgN/A
3:00 PM70 °FMostly cloudy.8 mph69%29.71 "HgN/A
2:30 PM70 °FMostly cloudy.7 mph69%29.68 "HgN/A
2:00 PM68 °FPartly sunny.10 mph69%29.71 "HgN/A
1:30 PM68 °FBroken clouds.9 mph69%29.68 "HgN/A
1:00 PM68 °FBroken clouds.6 mph78%29.71 "HgN/A
12:30 PM66 °FBroken clouds.7 mph78%29.71 "HgN/A
12:00 PM64 °FMostly cloudy.7 mph88%29.71 "HgN/A
11:30 AM64 °FMostly cloudy.8 mph88%29.71 "HgN/A
11:00 AM64 °FPartly sunny.5 mph88%29.71 "HgN/A
10:30 AM61 °FLow clouds.5 mph94%29.71 "HgN/A
10:00 AM61 °FLow clouds.7 mph94%29.71 "HgN/A
9:30 AM61 °FMore clouds than sun.7 mph94%29.71 "HgN/A
9:00 AM61 °FMostly cloudy.7 mph94%29.71 "Hg4 mi
8:30 AM59 °FMostly cloudy.6 mph100%29.71 "Hg4 mi
8:00 AM59 °FBroken clouds.3 mph100%29.71 "Hg4 mi
7:30 AM59 °FFog.2 mph100%29.71 "Hg3 mi
7:00 AM57 °FFog.1 mph100%29.71 "Hg3 mi
Weather by CustomWeather, © 2016

See weather overviewHow to use our weather pages